SCP
-0 0 -0 -0 0 0 -1 -1 -0 -0 0 0 0 0 0 0 0 0 0 0 0 0 -0 0 -0 -0 -0 -0 -0 0 0 0 0
-0 0 0 -0 -0 -1 -1 -0 -0 0 0 0 0 0 0 0 0 0 0 0 0 -0 -0 -0 0 0 -0 -0 -0 -0 0 -0 -0
-0 0 0 -0 -0 -0 -0 -0 -0 0 0 0 0 0 0 0 0 0 0 0 0 -0 0 0 0 0 -0 -0 -0 -0 0 -0 -0
0 0 -0 -1 -0 -0 -0 -0 -0 0 0 0 0 0 0 0 0 0 0 0 0 0 0 0 0 0 -0 -0 -0 -0 0 -0 -0
0 -0 0 -0 -0 -0 -1 -0 -0 -0 0 0 0 0 0 0 0 0 0 0 0 0 0 0 0 0 0 -0 0 0 0 0 -0
0 0 -0 -0 0 -0 -1 -1 -0 -0 0 0 0 0 0 0 0 0 0 0 0 0 0 0 0 0 0 0 0 0 0 0 -0
1 1 0 0 1 1 -1 -0 0 0 0 0 0 0 0 0 0 0 0 0 0 0 0 0 0 0 0 0 0 0 0 0 0
0 0 -0 1 1 2 2 0 1 1 1 0 0 0 0 0 0 0 0 0 0 0 0 0 0 0 0 0 0 0 0 0 0
-0 0 -0 -0 -0 -0 2 1 1 1 0 0 0 0 0 0 0 0 0 0 0 0 0 0 0 0 0 0 0 0 0 0 0
-0 0 0 0 -0 0 1 1 1 2 1 0 0 0 0 0 0 0 0 0 0 0 0 0 0 0 0 0 0 0 0 0 0
0 0 0 0 0 0 1 1 1 0 0 0 0 0 0 0 0 0 0 0 0 0 -0 0 0 0 0 0 0 0 0 0 0
0 1 1 0 0 1 1 1 1 0 0 0 0 0 0 0 0 0 0 0 0 0 0 0 0 0 0 0 -0 0 0 0 0
1 0 0 0 1 1 1 0 0 0 0 0 0 0 0 0 0 0 0 0 0 0 0 0 0 0 0 0 -0 0 0 0 -0
1 0 -1 -0 1 1 0 0 0 0 0 0 0 0 0 0 0 0 0 0 0 0 0 0 0 0 0 0 0 0 0 0 -0
1 0 0 0 0 0 0 0 0 0 0 0 0 0 0 0 0 0 0 0 0 0 0 0 0 0 0 0 0 0 0 0 0
1 0 0 0 0 0 0 0 0 0 0 0 0 0 0 0 0 0 0 0 0 0 0 0 0 0 0 0 0 0 0 0 0
0 0 0 0 0 0 0 0 0 0 0 0 0 0 0 0 0 0 0 0 0 0 0 0 0 0 0 0 0 0 0 -0 -0
0 0 0 0 0 0 0 0 0 0 0 0 0 0 0 0 0 0 0 0 0 0 0 0 0 0 0 0 0 0 0 0 0
0 0 0 0 0 0 0 0 0 0 0 0 0 0 0 0 0 0 0 0 0 0 0 0 0 0 0 0 0 0 -0 0 0
0 0 0 0 0 0 0 0 0 0 0 0 0 0 0 0 0 0 0 0 0 0 0 0 0 0 0 0 0 0 0 0 0
Wind_Speed_500mb
74 59 40 60 51 73 69 57 46 39 40 38 37 34 28 26 23 22 16 10 6 1 10 8 14 26 29 29 26 22 21 28 35
75 64 59 54 68 80 67 62 55 45 45 41 38 33 30 28 25 18 11 8 12 21 21 20 21 25 32 34 31 25 21 31 39
64 72 60 77 87 85 71 58 48 37 38 40 36 34 29 29 25 14 19 18 15 18 20 18 26 25 29 30 27 30 24 35 44
36 57 93 91 87 74 63 55 44 36 31 38 38 34 32 30 24 26 19 10 11 11 14 21 30 29 26 28 34 29 25 39 46
60 62 61 90 82 75 61 54 45 37 31 42 39 32 37 35 32 24 16 12 8 2 12 21 25 26 23 28 30 32 27 41 42
88 63 77 81 79 76 62 57 46 39 38 41 42 38 37 35 28 23 18 17 9 6 15 21 22 23 22 26 27 29 25 37 42
64 63 41 64 75 69 61 59 49 46 45 44 44 41 35 35 32 22 18 9 6 13 18 19 19 18 23 25 25 22 25 33 40
47 35 26 29 60 62 65 59 52 49 47 48 42 39 41 41 32 20 8 8 13 20 16 18 21 24 27 27 27 26 29 35 38
67 76 76 64 69 58 68 66 57 53 52 48 48 40 38 40 33 21 11 6 15 16 19 21 24 28 29 30 28 25 23 22 20
90 90 71 88 82 56 74 63 41 48 55 52 50 46 46 40 31 20 11 6 8 15 21 24 23 23 21 19 17 20 20 21 25
71 86 93 95 73 61 61 45 43 29 25 33 51 44 32 33 19 10 8 6 11 15 24 19 3 8 15 19 21 23 30 36 38
45 59 66 70 74 71 64 49 37 19 23 48 31 36 31 23 17 8 13 13 13 23 16 4 4 6 11 20 31 41 44 44 45
41 45 70 79 76 73 63 38 23 21 38 33 38 33 30 22 13 9 9 12 21 11 4 7 3 10 19 29 36 40 43 44 46
54 67 68 67 69 66 47 34 36 43 45 39 31 27 21 13 8 10 15 12 2 5 6 6 8 12 21 27 35 43 49 54 58
50 53 52 45 47 44 34 37 35 38 36 29 28 15 20 10 10 8 9 4 9 5 5 1 5 11 24 40 46 50 56 61 65
46 51 53 46 35 39 40 38 34 40 40 37 32 23 13 11 11 15 10 9 7 5 7 13 24 30 33 38 38 42 49 57 64
49 45 41 31 25 35 45 41 40 34 34 37 27 21 17 14 13 16 15 12 9 12 15 22 29 30 30 36 44 46 35 47 54
40 34 29 22 26 42 44 40 36 35 38 32 28 23 21 19 19 14 12 9 8 8 12 11 10 16 23 28 37 43 46 49 53
37 35 32 31 36 36 35 40 44 41 33 27 24 23 20 22 16 12 7 5 6 4 6 10 13 19 25 30 33 40 42 43 46
44 39 33 30 29 29 36 37 34 30 26 22 20 22 20 21 13 9 13 10 7 6 3 10 15 16 20 26 33 34 38 40 44
Wind_Direction_500mb
205 213 203 189 194 196 197 191 196 202 204 203 198 199 190 176 172 163 170 177 209 311 339 21 43 29 19 9 359 352 353 5 11
202 206 191 192 197 196 194 191 195 193 192 192 183 177 169 171 180 175 164 164 115 89 54 37 20 14 13 8 13 8 5 6 1
178 191 193 186 193 193 194 196 190 184 189 183 177 175 174 179 180 176 146 120 82 48 24 21 6 358 10 12 10 11 18 7 2
131 182 177 183 183 187 191 189 187 181 181 186 178 173 176 183 175 156 133 100 59 41 5 352 347 350 355 11 8 14 8 359 1
146 204 186 179 179 181 183 185 184 187 183 179 175 176 170 161 145 139 132 152 171 11 345 331 340 344 345 354 354 0 351 347 352
168 181 179 179 176 178 180 182 180 182 182 178 178 177 172 162 162 168 171 181 175 297 328 336 335 342 343 344 344 345 346 336 338
162 161 155 174 176 181 185 183 180 176 178 186 186 175 171 165 174 167 164 187 272 312 321 328 332 334 326 325 330 338 325 320 331
152 151 164 184 179 182 187 186 180 178 180 187 185 181 168 168 180 178 196 257 304 324 325 327 331 331 320 323 326 325 321 319 324
163 162 188 191 194 196 192 187 186 188 191 186 184 179 171 176 190 195 206 291 337 327 324 329 329 317 317 318 323 333 342 348 350
179 186 201 193 202 200 189 192 199 194 179 174 163 176 184 195 200 197 222 257 315 315 324 328 325 318 330 352 358 354 348 342 333
195 201 195 203 210 190 193 201 178 181 119 189 162 177 201 216 204 229 260 273 327 339 338 345 339 347 357 357 0 347 337 336 337
185 195 194 193 202 194 193 197 189 179 174 194 196 204 207 191 184 226 253 290 325 330 329 6 1 11 11 357 348 342 345 348 350
181 191 190 192 190 187 191 206 196 177 182 181 173 199 191 187 233 247 292 303 308 313 11 57 25 5 353 355 356 358 0 4 5
151 164 170 174 176 183 200 217 165 165 170 175 179 174 183 195 215 267 276 279 265 96 73 8 324 351 8 18 31 33 32 30 26
146 152 156 166 157 152 175 180 164 161 163 182 169 177 178 191 252 260 233 162 115 78 356 300 102 82 75 63 52 45 42 39 36
160 161 155 153 151 146 145 148 159 167 172 171 180 178 191 204 188 178 164 117 107 92 97 114 103 93 75 53 39 35 34 33 30
162 158 154 155 144 144 147 153 162 170 171 167 170 182 191 163 142 144 126 106 91 75 92 109 101 79 58 42 33 28 21 23 23
166 165 165 162 150 157 159 166 175 174 168 172 175 177 165 144 146 152 141 121 109 77 75 76 54 32 31 27 23 20 19 15 12
181 175 172 165 163 172 174 174 169 170 177 177 170 158 159 165 158 160 189 180 191 174 58 41 22 26 23 16 8 7 9 5 0
177 171 166 163 171 181 173 171 173 176 174 174 166 164 167 169 178 208 187 187 222 206 259 7 6 2 1 3 359 353 358 350 345
Wind_Speed_850mb
74 59 40 60 51 73 69 57 46 39 40 38 37 34 28 26 23 22 16 10 6 1 10 8 14 26 29 29 26 22 21 28 35
75 64 59 54 68 80 67 62 55 45 45 41 38 33 30 28 25 18 11 8 12 21 21 20 21 25 32 34 31 25 21 31 39
64 72 60 77 87 85 71 58 48 37 38 40 36 34 29 29 25 14 19 18 15 18 20 18 26 25 29 30 27 30 24 35 44
36 57 93 91 87 74 63 55 44 36 31 38 38 34 32 30 24 26 19 10 11 11 14 21 30 29 26 28 34 29 25 39 46
60 62 61 90 82 75 61 54 45 37 31 42 39 32 37 35 32 24 16 12 8 2 12 21 25 26 23 28 30 32 27 41 42
88 63 77 81 79 76 62 57 46 39 38 41 42 38 37 35 28 23 18 17 9 6 15 21 22 23 22 26 27 29 25 37 42
64 63 41 64 75 69 61 59 49 46 45 44 44 41 35 35 32 22 18 9 6 13 18 19 19 18 23 25 25 22 25 33 40
47 35 26 29 60 62 65 59 52 49 47 48 42 39 41 41 32 20 8 8 13 20 16 18 21 24 27 27 27 26 29 35 38
67 76 76 64 69 58 68 66 57 53 52 48 48 40 38 40 33 21 11 6 15 16 19 21 24 28 29 30 28 25 23 22 20
90 90 71 88 82 56 74 63 41 48 55 52 50 46 46 40 31 20 11 6 8 15 21 24 23 23 21 19 17 20 20 21 25
71 86 93 95 73 61 61 45 43 29 25 33 51 44 32 33 19 10 8 6 11 15 24 19 3 8 15 19 21 23 30 36 38
45 59 66 70 74 71 64 49 37 19 23 48 31 36 31 23 17 8 13 13 13 23 16 4 4 6 11 20 31 41 44 44 45
41 45 70 79 76 73 63 38 23 21 38 33 38 33 30 22 13 9 9 12 21 11 4 7 3 10 19 29 36 40 43 44 46
54 67 68 67 69 66 47 34 36 43 45 39 31 27 21 13 8 10 15 12 2 5 6 6 8 12 21 27 35 43 49 54 58
50 53 52 45 47 44 34 37 35 38 36 29 28 15 20 10 10 8 9 4 9 5 5 1 5 11 24 40 46 50 56 61 65
46 51 53 46 35 39 40 38 34 40 40 37 32 23 13 11 11 15 10 9 7 5 7 13 24 30 33 38 38 42 49 57 64
49 45 41 31 25 35 45 41 40 34 34 37 27 21 17 14 13 16 15 12 9 12 15 22 29 30 30 36 44 46 35 47 54
40 34 29 22 26 42 44 40 36 35 38 32 28 23 21 19 19 14 12 9 8 8 12 11 10 16 23 28 37 43 46 49 53
37 35 32 31 36 36 35 40 44 41 33 27 24 23 20 22 16 12 7 5 6 4 6 10 13 19 25 30 33 40 42 43 46
44 39 33 30 29 29 36 37 34 30 26 22 20 22 20 21 13 9 13 10 7 6 3 10 15 16 20 26 33 34 38 40 44
Wind_Direction_850mb
205 213 203 189 194 196 197 191 196 202 204 203 198 199 190 176 172 163 170 177 209 311 339 21 43 29 19 9 359 352 353 5 11
202 206 191 192 197 196 194 191 195 193 192 192 183 177 169 171 180 175 164 164 115 89 54 37 20 14 13 8 13 8 5 6 1
178 191 193 186 193 193 194 196 190 184 189 183 177 175 174 179 180 176 146 120 82 48 24 21 6 358 10 12 10 11 18 7 2
131 182 177 183 183 187 191 189 187 181 181 186 178 173 176 183 175 156 133 100 59 41 5 352 347 350 355 11 8 14 8 359 1
146 204 186 179 179 181 183 185 184 187 183 179 175 176 170 161 145 139 132 152 171 11 345 331 340 344 345 354 354 0 351 347 352
168 181 179 179 176 178 180 182 180 182 182 178 178 177 172 162 162 168 171 181 175 297 328 336 335 342 343 344 344 345 346 336 338
162 161 155 174 176 181 185 183 180 176 178 186 186 175 171 165 174 167 164 187 272 312 321 328 332 334 326 325 330 338 325 320 331
152 151 164 184 179 182 187 186 180 178 180 187 185 181 168 168 180 178 196 257 304 324 325 327 331 331 320 323 326 325 321 319 324
163 162 188 191 194 196 192 187 186 188 191 186 184 179 171 176 190 195 206 291 337 327 324 329 329 317 317 318 323 333 342 348 350
179 186 201 193 202 200 189 192 199 194 179 174 163 176 184 195 200 197 222 257 315 315 324 328 325 318 330 352 358 354 348 342 333
195 201 195 203 210 190 193 201 178 181 119 189 162 177 201 216 204 229 260 273 327 339 338 345 339 347 357 357 0 347 337 336 337
185 195 194 193 202 194 193 197 189 179 174 194 196 204 207 191 184 226 253 290 325 330 329 6 1 11 11 357 348 342 345 348 350
181 191 190 192 190 187 191 206 196 177 182 181 173 199 191 187 233 247 292 303 308 313 11 57 25 5 353 355 356 358 0 4 5
151 164 170 174 176 183 200 217 165 165 170 175 179 174 183 195 215 267 276 279 265 96 73 8 324 351 8 18 31 33 32 30 26
146 152 156 166 157 152 175 180 164 161 163 182 169 177 178 191 252 260 233 162 115 78 356 300 102 82 75 63 52 45 42 39 36
160 161 155 153 151 146 145 148 159 167 172 171 180 178 191 204 188 178 164 117 107 92 97 114 103 93 75 53 39 35 34 33 30
162 158 154 155 144 144 147 153 162 170 171 167 170 182 191 163 142 144 126 106 91 75 92 109 101 79 58 42 33 28 21 23 23
166 165 165 162 150 157 159 166 175 174 168 172 175 177 165 144 146 152 141 121 109 77 75 76 54 32 31 27 23 20 19 15 12
181 175 172 165 163 172 174 174 169 170 177 177 170 158 159 165 158 160 189 180 191 174 58 41 22 26 23 16 8 7 9 5 0
177 171 166 163 171 181 173 171 173 176 174 174 166 164 167 169 178 208 187 187 222 206 259 7 6 2 1 3 359 353 358 350 345